OE2SWM Weather Reports


time (UTC)temp
F
wind
direction
speed
knots
gust
knots
rain 1hr
in
rain 24hr
in
rain mn
in
humidity
%
barometer
mb
20260507075000 57 0 0.0 0.0 0.00 0.00 0.00 64 967.0
20260507074000 57 0 0.0 0.0 0.00 0.00 0.00 65 967.0
20260507073000 55 0 0.0 0.0 0.00 0.00 0.00 68 967.0
20260507072000 53 0 0.0 0.0 0.00 0.00 0.00 69 967.0
20260507071000 53 0 0.0 0.0 0.00 0.00 0.00 70 967.0
20260507070000 53 0 0.0 0.0 0.00 0.00 0.00 71 967.0
20260507065000 53 0 0.0 0.0 0.00 0.00 0.00 72 967.0
20260507064000 53 0 0.0 0.0 0.00 0.00 0.00 74 967.0
20260507063000 53 0 0.0 0.0 0.00 0.00 0.00 74 967.0
20260507062000 53 0 0.0 0.0 0.00 0.00 0.00 75 967.0
20260507061000 53 0 0.0 0.0 0.00 0.00 0.00 75 967.0
20260507060000 53 0 0.0 0.0 0.00 0.00 0.00 76 967.0
20260507055000 53 0 0.0 0.0 0.00 0.00 0.00 74 967.0
20260507054000 55 0 0.0 0.0 0.00 0.00 0.00 69 967.0
20260507053000 62 0 0.0 0.0 0.00 0.00 0.00 58 967.0
20260507052000 66 0 0.0 0.0 0.00 0.00 0.00 56 967.0
20260507051000 57 0 0.0 0.0 0.00 0.00 0.00 73 967.0
20260507050000 51 0 0.0 0.0 0.00 0.00 0.00 80 967.0
20260507045000 48 0 0.0 0.0 0.00 0.00 0.00 84 967.0
20260507044000 44 0 0.0 0.0 0.00 0.00 0.00 89 967.0
20260507043000 44 0 0.0 0.0 0.00 0.00 0.00 89 967.0
20260507042000 44 0 0.0 0.0 0.00 0.00 0.00 90 967.0
20260507041000 44 0 0.0 0.0 0.00 0.00 0.00 92 967.0
20260507040000 44 0 0.0 0.0 0.00 0.00 0.00 88 967.0
20260507035000 44 0 0.0 0.0 0.00 0.00 0.00 89 967.0
20260507034000 44 0 0.0 0.0 0.00 0.00 0.00 89 967.0
20260507033000 44 0 0.0 0.0 0.00 0.00 0.00 90 967.0
20260507032000 44 0 0.0 0.0 0.00 0.00 0.00 89 967.0
20260507031000 44 0 0.0 0.0 0.00 0.00 0.00 91 967.0
20260507030000 42 0 0.0 0.0 0.00 0.00 0.00 90 966.0
20260507025000 42 0 0.0 0.0 0.00 0.00 0.00 91 966.0
20260507024000 42 0 0.0 0.0 0.00 0.00 0.00 91 966.0
20260507023000 42 0 0.0 0.0 0.00 0.00 0.00 91 966.0
20260507022000 42 0 0.0 0.0 0.00 0.00 0.00 93 966.0
20260507021000 42 0 0.0 0.0 0.00 0.00 0.00 91 966.0
20260507020000 42 0 0.0 0.0 0.00 0.00 0.00 92 966.0
20260507015000 42 0 0.0 0.0 0.00 0.00 0.00 92 966.0
20260507014000 41 0 0.0 0.0 0.00 0.00 0.00 94 966.0
20260507013000 42 0 0.0 0.0 0.00 0.00 0.00 90 966.0
20260507012000 41 0 0.0 0.0 0.00 0.00 0.00 94 966.0
20260507011000 42 0 0.0 0.0 0.00 0.00 0.00 91 966.0
20260507010000 42 0 0.0 0.0 0.00 0.00 0.00 89 966.0
20260507005000 42 0 0.0 0.0 0.00 0.00 0.00 90 966.0
20260507004000 42 0 0.0 0.0 0.00 0.00 0.00 92 966.0
20260507003000 42 0 0.0 0.0 0.00 0.00 0.00 90 966.0
20260507002000 42 0 0.0 0.0 0.00 0.00 0.00 87 966.0
20260507001000 42 0 0.0 0.0 0.00 0.00 0.00 90 966.0
20260507000000 44 0 0.0 0.0 0.00 0.00 0.00 88 966.0
20260506235000 44 0 0.0 0.0 0.00 0.00 0.00 85 966.0
20260506234000 44 0 0.0 0.0 0.00 0.00 0.00 87 966.0
20260506233000 44 0 0.0 0.0 0.00 0.00 0.00 87 966.0
20260506232000 46 0 0.0 0.0 0.00 0.00 0.00 89 966.0
20260506231000 46 0 0.0 0.0 0.00 0.00 0.00 88 966.0
20260506230000 46 0 0.0 0.0 0.00 0.00 0.00 87 966.0
20260506225000 46 0 0.0 0.0 0.00 0.00 0.00 85 966.0
20260506224000 48 0 0.0 0.0 0.00 0.00 0.00 84 966.0
20260506223000 48 0 0.0 0.0 0.00 0.00 0.00 86 966.0
20260506222000 48 0 0.0 0.0 0.00 0.00 0.00 82 966.0
20260506221000 50 0 0.0 0.0 0.00 0.00 0.00 81 965.0
20260506220000 51 0 0.0 0.0 0.00 0.00 0.00 81 965.0
20260506215000 51 0 0.0 0.0 0.00 0.00 0.00 78 965.0
20260506214000 51 0 0.0 0.0 0.00 0.00 0.00 78 965.0
20260506213000 51 0 0.0 0.0 0.00 0.00 0.00 78 965.0
20260506212000 51 0 0.0 0.0 0.00 0.00 0.00 78 965.0
20260506211000 51 0 0.0 0.0 0.00 0.00 0.00 79 965.0
20260506210000 51 0 0.0 0.0 0.00 0.00 0.00 78 964.0
20260506205000 53 0 0.0 0.0 0.00 0.00 0.00 77 964.0
20260506204000 53 0 0.0 0.0 0.00 0.00 0.00 77 964.0
20260506203000 53 0 0.0 0.0 0.00 0.00 0.00 75 964.0
20260506202000 53 0 0.0 0.0 0.00 0.00 0.00 73 964.0
20260506201000 53 0 0.0 0.0 0.00 0.00 0.00 72 964.0
20260506200000 55 0 0.0 0.0 0.00 0.00 0.00 70 964.0
20260506195000 55 0 0.0 0.0 0.00 0.00 0.00 69 964.0
20260506194000 55 0 0.0 0.0 0.00 0.00 0.00 68 964.0
20260506193000 57 0 0.0 0.0 0.00 0.00 0.00 64 964.0
20260506192000 57 0 0.0 0.0 0.00 0.00 0.00 64 964.0
20260506191000 57 0 0.0 0.0 0.00 0.00 0.00 64 964.0
20260506190000 57 0 0.0 0.0 0.00 0.00 0.00 64 964.0
20260506185000 57 0 0.0 0.0 0.00 0.00 0.00 64 964.0
20260506184000 57 0 0.0 0.0 0.00 0.00 0.00 63 963.0
20260506183000 57 0 0.0 0.0 0.00 0.00 0.00 63 963.0
20260506182000 57 0 0.0 0.0 0.00 0.00 0.00 63 963.0
20260506181000 57 0 0.0 0.0 0.00 0.00 0.00 63 963.0
20260506180000 57 0 0.0 0.0 0.00 0.00 0.00 64 963.0
20260506175000 57 0 0.0 0.0 0.00 0.00 0.00 64 963.0
20260506174000 59 0 0.0 0.0 0.00 0.00 0.00 63 963.0
20260506173000 59 0 0.0 0.0 0.00 0.00 0.00 62 963.0
20260506172000 59 0 0.0 0.0 0.00 0.00 0.00 61 963.0
20260506171000 59 0 0.0 0.0 0.00 0.00 0.00 59 963.0
20260506170000 60 0 0.0 0.0 0.00 0.00 0.00 58 963.0
20260506165000 62 0 0.0 0.0 0.00 0.00 0.00 56 963.0
20260506164000 60 0 0.0 0.0 0.00 0.00 0.00 57 962.0
20260506163000 62 0 0.0 0.0 0.00 0.00 0.00 57 962.0
20260506162000 64 0 0.0 0.0 0.00 0.00 0.00 55 962.0
20260506161000 64 0 0.0 0.0 0.00 0.00 0.00 54 962.0
20260506160000 62 0 0.0 0.0 0.00 0.00 0.00 56 963.0
20260506155000 62 0 0.0 0.0 0.00 0.00 0.00 56 963.0
20260506154000 62 0 0.0 0.0 0.00 0.00 0.00 55 963.0
20260506153000 62 0 0.0 0.0 0.00 0.00 0.00 55 963.0
20260506152000 62 0 0.0 0.0 0.00 0.00 0.00 55 963.0
20260506151000 62 0 0.0 0.0 0.00 0.00 0.00 55 963.0
20260506150000 62 0 0.0 0.0 0.00 0.00 0.00 55 962.0
20260506145000 62 0 0.0 0.0 0.00 0.00 0.00 55 963.0
20260506144000 62 0 0.0 0.0 0.00 0.00 0.00 55 963.0
20260506143000 62 0 0.0 0.0 0.00 0.00 0.00 55 963.0
20260506142000 64 0 0.0 0.0 0.00 0.00 0.00 55 963.0
20260506141000 64 0 0.0 0.0 0.00 0.00 0.00 54 963.0
20260506140000 64 0 0.0 0.0 0.00 0.00 0.00 54 963.0
20260506135000 66 0 0.0 0.0 0.00 0.00 0.00 53 963.0
20260506134000 66 0 0.0 0.0 0.00 0.00 0.00 52 963.0
20260506133000 66 0 0.0 0.0 0.00 0.00 0.00 52 963.0
20260506132000 64 0 0.0 0.0 0.00 0.00 0.00 52 963.0
20260506131000 64 0 0.0 0.0 0.00 0.00 0.00 52 963.0
20260506130000 64 0 0.0 0.0 0.00 0.00 0.00 53 963.0
20260506125000 64 0 0.0 0.0 0.00 0.00 0.00 52 963.0
20260506124000 64 0 0.0 0.0 0.00 0.00 0.00 53 963.0
20260506123000 64 0 0.0 0.0 0.00 0.00 0.00 52 963.0
20260506122000 66 0 0.0 0.0 0.00 0.00 0.00 51 963.0
20260506121000 64 0 0.0 0.0 0.00 0.00 0.00 52 963.0
20260506120000 64 0 0.0 0.0 0.00 0.00 0.00 52 963.0
20260506115000 64 0 0.0 0.0 0.00 0.00 0.00 51 963.0
20260506114000 66 0 0.0 0.0 0.00 0.00 0.00 49 963.0
20260506113000 66 0 0.0 0.0 0.00 0.00 0.00 49 963.0
20260506112000 68 0 0.0 0.0 0.00 0.00 0.00 50 963.0
20260506111000 66 0 0.0 0.0 0.00 0.00 0.00 51 963.0
20260506110000 66 0 0.0 0.0 0.00 0.00 0.00 52 963.0
20260506105000 66 0 0.0 0.0 0.00 0.00 0.00 54 963.0
20260506104000 62 0 0.0 0.0 0.00 0.00 0.00 57 963.0
20260506103000 62 0 0.0 0.0 0.00 0.00 0.00 58 963.0
20260506102000 60 0 0.0 0.0 0.00 0.00 0.00 59 964.0
20260506101000 60 0 0.0 0.0 0.00 0.00 0.00 64 964.0
20260506100000 57 0 0.0 0.0 0.00 0.00 0.00 65 964.0
20260506095000 59 0 0.0 0.0 0.00 0.00 0.00 65 964.0
20260506094000 57 0 0.0 0.0 0.00 0.00 0.00 69 964.0
20260506093000 55 0 0.0 0.0 0.00 0.00 0.00 69 964.0
20260506092000 55 0 0.0 0.0 0.00 0.00 0.00 70 964.0
20260506091000 53 0 0.0 0.0 0.00 0.00 0.00 71 964.0
20260506090000 55 0 0.0 0.0 0.00 0.00 0.00 71 964.0
20260506085000 55 0 0.0 0.0 0.00 0.00 0.00 70 964.0
20260506084000 53 0 0.0 0.0 0.00 0.00 0.00 73 964.0
20260506083000 53 0 0.0 0.0 0.00 0.00 0.00 74 964.0
20260506082000 51 0 0.0 0.0 0.00 0.00 0.00 74 964.0
20260506081000 53 0 0.0 0.0 0.00 0.00 0.00 73 964.0